Weather History for PAKW - August, 2013

Change the Weather History Date:

Thursday, August 29, 2013

  Actual Average (WUND) Record (WUND)
Temperature  
Mean Temperature 60 °F -  
Max Temperature 75 °F - - (-1)
Min Temperature 48 °F - - (-1)
Degree Days  
Heating Degree Days 4    
Growing Degree Days 10 (Base 50)    
Moisture  
Dew Point 53 °F    
Average Humidity 77    
Maximum Humidity 96    
Minimum Humidity 46    
Precipitation  
Precipitation 0.14 in - - ()
Sea Level Pressure  
Sea Level Pressure 29.75 in    
Wind  
Wind Speed 1 mph (NE)    
Max Wind Speed 8 mph    
Max Gust Speed -    
Visibility 10 miles    
Events Rain    
Averages and records for this station are not official NWS values.
T = Trace of Precipitation, MM = Missing Value Source: NWS Daily Summary

Daily Weather History Graph

Daily Weather History Graph

Search for Another Location

Airport or City:

Trip Planner

Search our weather history database for the weather conditions in past years. The results will help you decide how hot, cold, wet, or windy it might be!

Date:

Astronomy

Aug. 29, 2013 Rise Set
Actual Time 5:52 AM AKDT 7:52 PM AKDT
Civil Twilight 5:13 AM AKDT 8:31 PM AKDT
Nautical Twilight 4:23 AM AKDT 9:20 PM AKDT
Astronomical Twilight 3:24 AM AKDT 10:18 PM AKDT
Moon No Moon Rise 4:00 PM AKDT (8/29)
Length of Visible Light 15h 18m
Length of Day
13h 59m
Last Quarter, 36% of the Moon is Illuminated
Aug 29
Last Quarter
Sep 5
New
Sep 12
First Quarter
Sep 19
Full
Sep 26
Last Quarter

Hourly Weather History & Observations

Time (AKDT) Temp. Dew Point Humidity Pressure Visibility Wind Dir Wind Speed Gust Speed Precip Events Conditions
12:53 AM 51.1 °F 48.0 °F 89% 29.82 in 10.0 mi Calm Calm - N/A   Partly Cloudy
1:53 AM 50.0 °F 48.0 °F 93% 29.81 in 10.0 mi Calm Calm - N/A   Partly Cloudy
2:53 AM 48.9 °F 46.9 °F 93% 29.80 in 10.0 mi Calm Calm - N/A   Clear
3:53 AM 51.1 °F 48.0 °F 89% 29.78 in 10.0 mi Calm Calm - N/A   Clear
4:53 AM 53.1 °F 48.9 °F 86% 29.78 in 10.0 mi Calm Calm - N/A   Overcast
5:53 AM 55.0 °F 50.0 °F 83% 29.78 in 10.0 mi Calm Calm - N/A   Overcast
6:53 AM 57.9 °F 51.1 °F 78% 29.77 in 10.0 mi NE 3.5 mph - N/A   Overcast
7:53 AM 59.0 °F 52.0 °F 78% 29.76 in 10.0 mi Calm Calm - N/A   Mostly Cloudy
8:53 AM 61.0 °F 52.0 °F 72% 29.76 in 10.0 mi Calm Calm - N/A   Overcast
9:53 AM 66.0 °F 53.1 °F 63% 29.75 in 10.0 mi ENE 3.5 mph - N/A   Overcast
10:53 AM 69.1 °F 53.1 °F 57% 29.73 in 10.0 mi NNE 6.9 mph - N/A   Scattered Clouds
11:53 AM 72.0 °F 52.0 °F 49% 29.73 in 10.0 mi Calm Calm - N/A   Overcast
12:53 PM 73.0 °F 53.1 °F 49% 29.72 in 10.0 mi Variable 3.5 mph - N/A   Overcast
1:53 PM 73.0 °F 54.0 °F 51% 29.71 in 10.0 mi SW 3.5 mph - N/A   Overcast
2:53 PM 73.0 °F 52.0 °F 48% 29.70 in 10.0 mi Calm Calm - N/A   Overcast
3:53 PM 73.0 °F 51.1 °F 46% 29.70 in 10.0 mi Variable 3.5 mph - N/A   Overcast
4:53 PM 69.1 °F 54.0 °F 58% 29.71 in 10.0 mi SSE 8.1 mph - N/A   Overcast
5:53 PM 62.1 °F 60.1 °F 93% 29.72 in 10.0 mi NNW 3.5 mph - 0.02 in Rain Light Rain
6:53 PM 60.1 °F 57.9 °F 93% 29.73 in 10.0 mi Variable 4.6 mph - 0.03 in Rain Light Rain
7:53 PM 60.1 °F 57.9 °F 93% 29.72 in 10.0 mi East 3.5 mph - 0.04 in Rain Light Rain
8:53 PM 59.0 °F 57.9 °F 96% 29.72 in 10.0 mi Variable 4.6 mph - 0.04 in   Overcast
9:53 PM 59.0 °F 57.9 °F 96% 29.73 in 10.0 mi Calm Calm - 0.01 in   Overcast
10:53 PM 59.0 °F 57.9 °F 96% 29.73 in 10.0 mi NE 4.6 mph - N/A   Overcast
11:53 PM 60.1 °F 57.0 °F 90% 29.73 in 10.0 mi Calm Calm - N/A   Overcast